This is the latest recevied weather packets stored in our database for station/object KN6KDD. If no packets are shown the sender has not sent any weather packets the latest 1 day(s).
| Time | Temp. | Humidity | Pressure | Rain* | Wind** | Luminosity | Snow |
|---|---|---|---|---|---|---|---|
| 1778030909 | 15° C | 80% | 1354.9 hPa | 0 mm | - | 91 W/m² | - |
| 1778030606 | 15.56° C | 81% | 1354.9 hPa | 0 mm | - | 105 W/m² | - |
| 1778030303 | 15.56° C | 79% | 1354.7 hPa | 0 mm | - | 102 W/m² | - |
| 1778030000 | 15° C | 80% | 1354.9 hPa | 0 mm | - | 117 W/m² | - |
| 1778029697 | 15° C | 80% | 1354.5 hPa | 0 mm | - | 105 W/m² | - |
| 1778029395 | 15° C | 79% | 1354.9 hPa | 0 mm | - | 125 W/m² | - |
| 1778029092 | 15.56° C | 81% | 1354.7 hPa | 0 mm | - | 142 W/m² | - |
| 1778028789 | 15° C | 81% | 1354.9 hPa | 0 mm | - | 147 W/m² | - |
| 1778027575 | 15.56° C | 81% | 1354.9 hPa | 0 mm | - | 165 W/m² | - |
| 1778027271 | 15.56° C | 79% | 1354.7 hPa | 0 mm | - | 149 W/m² | - |
| 1778026967 | 15.56° C | 80% | 1354.7 hPa | 0 mm | - | 139 W/m² | - |
| 1778026663 | 15.56° C | 80% | 1354.5 hPa | 0 mm | - | 165 W/m² | - |
| 1778026361 | 16.11° C | 81% | 1354.4 hPa | 0 mm | - | 182 W/m² | - |
| 1778026058 | 16.11° C | 82% | 1354.4 hPa | 0 mm | - | 206 W/m² | - |
| 1778023333 | 16.11° C | 80% | 1354.7 hPa | 0 mm | - | 203 W/m² | - |
| 1778021819 | 16.11° C | 79% | 1354.8 hPa | 0 mm | - | 173 W/m² | - |
| 1778016668 | 15.56° C | 79% | 1355.5 hPa | 0 mm | - | 314 W/m² | - |
| 1778014547 | 15° C | 81% | 1355.3 hPa | 0 mm | - | 440 W/m² | - |
| 1778013639 | 14.44° C | 83% | 1355.6 hPa | 0 mm | - | 243 W/m² | - |
| 1778012122 | 14.44° C | 84% | 1355.5 hPa | 0 mm | - | 246 W/m² | - |
| 1778010608 | 14.44° C | 84% | 1355.5 hPa | 0 mm | - | 294 W/m² | - |
| 1778009098 | 13.89° C | 86% | 1355.3 hPa | 0 mm | - | 207 W/m² | - |
| 1778007885 | 14.44° C | 83% | 1355.3 hPa | 0 mm | - | 342 W/m² | - |
| 1778007581 | 14.44° C | 85% | 1355.2 hPa | 0 mm | - | 341 W/m² | - |
| 1778006368 | 14.44° C | 83% | 1355.5 hPa | 0 mm | - | 306 W/m² | - |
* Rain latest hour (hover to see other rain measurements)
** Current wind speed in m/s (hover to see current wind gust speed)